Volver al catálogo

STARLINK-36450

ActivoComunicacionesVLEO
NORAD 67317·PAYLOAD·🇺🇸 United States

Lanzado Jan 4, 2026 desde Cape Canaveral Space Force Station

Loading…

Próximos Pases (próximas 24 horas)

TLE

ActualizadoSource: CelesTrak SupGP

Época: Sep 15, 2026, 03:28 UTC

1 67317C 26002N   26258.14493056  .00040588  00000+0  14701-2 0  2586
2 67317  43.0009 335.6788 0001476 266.3983 305.5487 15.27558790    19

Sigue STARLINK-36450 en tiempo real con AllMySat

Download on the App Store